Alturas, CA

12:21 AM PDT on August 21, 2017 (GMT -0700)
Alturas Municipal

Weather History for KAAT - October, 2014

Change the Weather History Date:

Friday, October 24, 2014

  Actual Average Record
Temperature  
Mean Temperature 57 °F 44 °F  
Max Temperature 72 °F 61 °F 85 °F (1959)
Min Temperature 42 °F 27 °F 14 °F (1935)
Degree Days  
Heating Degree Days 8 21  
Month to date heating degree days 288 410  
Since 1 July heating degree days 429 787  
Cooling Degree Days 0 0  
Month to date cooling degree days 0 0  
Year to date cooling degree days 380 156  
Growing Degree Days 8 (Base 50)    
Moisture  
Dew Point 38 °F    
Average Humidity 61    
Maximum Humidity 100    
Minimum Humidity 22    
Precipitation  
Precipitation 0.00 in 0.04 in 0.86 in (1939)
Month to date precipitation 0.64 0.67  
Year to date precipitation 7.28 10.33  
Sea Level Pressure  
Sea Level Pressure 29.95 in    
Wind  
Wind Speed 9 mph (South)    
Max Wind Speed 26 mph    
Max Gust Speed 33 mph    
Visibility 9 miles    
Events      
T = Trace of Precipitation, MM = Missing Value Source: NWS Daily Summary

Daily Weather History Graph

Daily Weather History Graph

Search for Another Location

Airport or City:

Trip Planner

Search our weather history database for the weather conditions in past years. The results will help you decide how hot, cold, wet, or windy it might be!

Date:

Astronomy

Oct. 24, 2014 Rise Set
Actual Time 7:24 AM PDT 6:07 PM PDT
Civil Twilight 6:56 AM PDT 6:35 PM PDT
Nautical Twilight 6:23 AM PDT 7:08 PM PDT
Astronomical Twilight 5:51 AM PDT 7:40 PM PDT
Moon 8:09 AM PDT (10/24) 6:50 PM PDT (10/24)
Length of Visible Light 11h 39m
Length of Day
10h 43m
New Moon, 1% of the Moon is Illuminated
Oct 24
New Moon
Oct 30
First Quarter
Nov 6
Full
Nov 14
Last Quarter
Nov 22
New

Hourly Weather History & Observations

Time (PDT) Temp. Windchill Dew Point Humidity Pressure Visibility Wind Dir Wind Speed Gust Speed Precip Events Conditions
12:55 AM 46.0 °F - 44.1 °F 93% 30.04 in 10.0 mi Calm Calm - N/A   Overcast
1:55 AM 46.0 °F - 44.1 °F 93% 30.02 in 10.0 mi Calm Calm - N/A   Overcast
2:55 AM 46.0 °F - 44.1 °F 93% 30.02 in 10.0 mi Calm Calm - N/A   Overcast
3:30 AM 46.0 °F - 44.1 °F 93% 30.05 in 6.0 mi Calm Calm - N/A   Overcast
3:55 AM 45.0 °F - 44.1 °F 97% 30.01 in 10.0 mi Calm Calm - N/A   Overcast
4:55 AM 46.0 °F 44.8 °F 44.1 °F 93% 30.00 in 10.0 mi East 3.5 mph - N/A   Overcast
5:55 AM 46.0 °F - 44.1 °F 93% 30.01 in 10.0 mi Calm Calm - N/A   Overcast
6:55 AM 45.0 °F - 44.1 °F 97% 30.01 in 10.0 mi Calm Calm - N/A   Overcast
7:45 AM 43.0 °F - 41.0 °F 93% 30.04 in 1.8 mi Calm Calm - N/A   Partly Cloudy
7:55 AM 43.0 °F - 42.1 °F 97% 30.02 in 2.5 mi Calm Calm - N/A   Scattered Clouds
8:02 AM 44.1 °F - 43.0 °F 96% 30.04 in 4.0 mi Calm Calm - N/A   Scattered Clouds
8:07 AM 45.0 °F - 43.0 °F 93% 30.04 in 1.8 mi Calm Calm - N/A   Scattered Clouds
8:22 AM 46.0 °F - 44.1 °F 93% 30.04 in 3.0 mi Calm Calm - N/A   Mostly Cloudy
8:55 AM 48.9 °F - 45.0 °F 86% 30.02 in 10.0 mi Calm Calm - N/A   Scattered Clouds
9:55 AM 54.0 °F - 43.0 °F 66% 30.00 in 10.0 mi Calm Calm - N/A   Clear
10:55 AM 61.0 °F - 39.9 °F 46% 29.97 in 10.0 mi South 15.0 mph - N/A   Clear
11:55 AM 64.9 °F - 39.0 °F 39% 29.95 in 10.0 mi South 15.0 mph 20.7 mph N/A   Clear
12:55 PM 68.0 °F - 37.0 °F 32% 29.91 in 10.0 mi SSW 17.3 mph 24.2 mph N/A   Clear
1:55 PM 71.1 °F - 34.0 °F 26% 29.86 in 10.0 mi SSW 20.7 mph 28.8 mph N/A   Clear
2:55 PM 71.1 °F - 32.0 °F 24% 29.84 in 10.0 mi SSW 17.3 mph 24.2 mph N/A   Clear
3:55 PM 72.0 °F - 30.0 °F 21% 29.83 in 10.0 mi SW 18.4 mph 29.9 mph N/A   Clear
4:55 PM 70.0 °F - 28.0 °F 21% 29.82 in 10.0 mi SSW 18.4 mph 27.6 mph N/A   Clear
5:55 PM 66.0 °F - 28.0 °F 24% 29.84 in 10.0 mi SSW 17.3 mph 21.9 mph N/A   Clear
6:55 PM 60.1 °F - 32.0 °F 35% 29.86 in 10.0 mi South 11.5 mph - N/A   Clear
7:55 PM 60.1 °F - 30.9 °F 33% 29.88 in 10.0 mi South 10.4 mph - N/A   Clear
8:55 PM 60.1 °F - 28.9 °F 31% 29.86 in 10.0 mi SSW 15.0 mph - N/A   Clear
9:55 PM 55.9 °F - 30.0 °F 37% 29.87 in 10.0 mi SE 8.1 mph - N/A   Clear
10:55 PM 55.9 °F - 28.9 °F 36% 29.84 in 10.0 mi SSW 6.9 mph - N/A   Clear
11:55 PM 57.0 °F - 28.9 °F 34% 29.81 in 10.0 mi South 10.4 mph - N/A   Clear